Location: Tel Aviv
(32.0670°N, 34.7670°E)
Time: 12:03:57
(UTC+03:00)

Explorer 11/Cluster Stage 4 - Pass Details

Date: 15 September 2024
Orbit: 464 x 1208 km, 28.8° (Epoch: 06 October)

Event Time Altitude Azimuth Distance (km) Brightness Sun altitude
Rises 10:14:54 0° 271° (W) 3,915 9.8 45.8°
Reaches altitude 10° 10:17:37 10° 268° (W) 3,026 9.3 46.3°
Maximum altitude 10:25:14 64° 189° (S) 1,313 8.8 47.6°
Drops below altitude 10° 10:33:05 10° 110° (ESE) 3,110 10.5 48.9°
Sets 10:35:54 0° 107° (ESE) 4,030 10.8 49.3°
